Back to catalog

YAM-9

AliveMilitarySSO
NORAD 66694·PAYLOAD·🇺🇸 United States

Launched Nov 28, 2025 from Vandenberg Space Force Base

Loading…

Next Passes (next 24 hours)

TLE

FreshSource: Space-Track

Epoch: Sep 14, 2026, 11:20 UTC

1 66694U 25276AE  26257.47224838  .00004167  00000-0  22193-3 0  9991
2 66694  97.4135 327.9035 0008677  13.0673 347.0783 15.15719501 43878

Track YAM-9 in real time with AllMySat

Download on the App Store